H1 CPF 2 NER 2021 3 23 9 082 01 glonass131 H2 1301901 9131 39155 2021 3 23 0 0 0 2021 3 26 23 45 0 900 1 1 0 0 0 1 H9 10 0 59296 0.00000 0 -14241541.417 -424905.197 -21098442.904 10 0 59296 900.00000 0 -12294969.563 -2271473.691 -22179591.225 10 0 59296 1800.00000 0 -10417851.255 -4334707.194 -22827622.335 10 0 59296 2700.00000 0 -8664473.505 -6570476.607 -23030057.120 10 0 59296 3600.00000 0 -7080820.118 -8925476.989 -22783159.928 10 0 59296 4500.00000 0 -5702792.601 -11339261.897 -22091995.444 10 0 59296 5400.00000 0 -4554876.672 -13746587.817 -20970309.619 10 0 59296 6300.00000 0 -3649308.718 -16079969.533 -19440238.506 10 0 59296 7200.00000 0 -2985774.713 -18272338.482 -17531852.405 10 0 59296 8100.00000 0 -2551651.184 -20259692.459 -15282545.967 10 0 59296 9000.00000 0 -2322774.702 -21983625.927 -12736287.808 10 0 59296 9900.00000 0 -2264704.224 -23393635.716 -9942745.880 10 0 59296 10800.00000 0 -2334419.930 -24449107.026 -6956306.948 10 0 59296 11700.00000 0 -2482384.315 -25120898.504 -3835010.260 10 0 59296 12600.00000 0 -2654876.632 -25392462.337 -639416.989 10 0 59296 13500.00000 0 -2796500.928 -25260455.045 2568562.353 10 0 59296 14400.00000 0 -2852761.439 -24734815.959 5726859.850 10 0 59296 15300.00000 0 -2772596.941 -23838312.428 8774438.856 10 0 59296 16200.00000 0 -2510768.108 -22605572.716 11652457.388 10 0 59296 17100.00000 0 -2029998.503 -21081648.254 14305385.178 10 0 59296 18000.00000 0 -1302780.516 -19320165.871 16682054.400 10 0 59296 18900.00000 0 -312771.582 -17381146.833 18736625.810 10 0 59296 19800.00000 0 944277.112 -15328582.560 20429453.680 10 0 59296 20700.00000 0 2460098.105 -13227866.334 21727834.758 10 0 59296 21600.00000 0 4214009.565 -11143185.724 22606628.556 10 0 59296 22500.00000 0 6173538.821 -9134981.718 23048738.308 10 0 59296 23400.00000 0 8295543.640 -7257577.898 23045444.031 10 0 59296 24300.00000 0 10527787.417 -5557076.107 22596581.388 10 0 59296 25200.00000 0 12810905.987 -4069604.499 21710562.251 10 0 59296 26100.00000 0 15080687.557 -2819990.039 20404235.305 10 0 59296 27000.00000 0 17270574.096 -1820910.530 18702587.469 10 0 59296 27900.00000 0 19314282.775 -1072562.065 16638289.580 10 0 59296 28800.00000 0 21148440.116 -562856.970 14251092.554 10 0 59296 29700.00000 0 22715119.968 -268145.420 11587083.140 10 0 59296 30600.00000 0 23964179.311 -154432.055 8697811.281 10 0 59296 31500.00000 0 24855293.095 -179037.957 5639304.172 10 0 59296 32400.00000 0 25359601.047 -292638.940 2470984.839 10 0 59296 33300.00000 0 25460894.928 -441594.484 -745484.318 10 0 59296 34200.00000 0 25156293.628 -570468.461 -3947410.172 10 0 59296 35100.00000 0 24456375.094 -624633.648 -7072305.268 10 0 59296 36000.00000 0 23384757.267 -552847.657 -10059126.230 10 0 59296 36900.00000 0 21977144.045 -309688.455 -12849487.913 10 0 59296 37800.00000 0 20279875.656 142256.770 -15388827.282 10 0 59296 38700.00000 0 18348044.442 830545.310 -17627492.013 10 0 59296 39600.00000 0 16243256.213 1771456.266 -19521730.275 10 0 59296 40500.00000 0 14031132.728 2969054.235 -21034560.645 10 0 59296 41400.00000 0 11778661.978 4414780.826 -22136503.864 10 0 59296 42300.00000 0 9551509.461 6087592.354 -22806161.366 10 0 59296 43200.00000 0 7411404.778 7954638.391 -23030629.210 10 0 59296 44100.00000 0 5413714.228 9972452.351 -22805739.728 10 0 59296 45000.00000 0 3605301.488 12088603.279 -22136127.079 10 0 59296 45900.00000 0 2022765.504 14243738.335 -21035116.735 10 0 59296 46800.00000 0 691127.990 16373929.107 -19524442.593 10 0 59296 47700.00000 0 -376976.640 18413222.121 -17633798.949 10 0 59296 48600.00000 0 -1181577.863 20296285.873 -15400237.853 10 0 59296 49500.00000 0 -1735103.944 21961043.081 -12867425.240 10 0 59296 50400.00000 0 -2061589.836 23351177.988 -10084771.956 10 0 59296 51300.00000 0 -2195394.878 24418414.505 -7106457.947 10 0 59296 52200.00000 0 -2179487.472 25124471.098 -3990369.637 10 0 59296 53100.00000 0 -2063371.542 25442612.310 -796971.959 10 0 59296 54000.00000 0 -1900744.076 25358734.162 2411862.707 10 0 59296 54900.00000 0 -1746983.575 24871940.210 5574046.083 10 0 59296 55800.00000 0 -1656575.549 23994586.404 8628463.371 10 0 59296 56700.00000 0 -1680583.129 22751794.744 11516138.409 10 0 59296 57600.00000 0 -1864268.325 21180457.437 14181353.465 10 0 59296 58500.00000 0 -2244962.716 19327773.866 16572703.672 10 0 59296 59400.00000 0 -2850275.681 17249381.328 18644067.690 10 0 59296 60300.00000 0 -3696714.268 15007156.556 20355477.948 10 0 59296 61200.00000 0 -4788771.836 12666778.008 21673875.551 10 0 59296 62100.00000 0 -6118523.627 10295148.146 22573737.094 10 0 59296 63000.00000 0 -7665747.013 7957780.260 23037562.600 10 0 59296 63900.00000 0 -9398562.944 5716255.860 23056215.939 10 0 59296 64800.00000 0 -11274574.266 3625855.695 22629111.294 10 0 59296 65700.00000 0 -13242456.390 1733460.732 21764241.510 10 0 59296 66600.00000 0 -15243937.250 75808.949 20478046.507 10 0 59296 67500.00000 0 -17216087.309 -1321820.313 18795122.454 10 0 59296 68400.00000 0 -19093827.075 -2446439.634 16747774.993 10 0 59296 69300.00000 0 -20812549.797 -3297668.901 14375422.609 10 0 59296 70200.00000 0 -22310751.243 -3887518.446 11723859.095 10 0 59296 71100.00000 0 -23532557.057 -4239647.519 8844386.993 10 0 59296 72000.00000 0 -24430041.201 -4388127.721 5792836.913 10 0 59296 72900.00000 0 -24965236.729 -4375762.206 2628490.451 10 0 59296 73800.00000 0 -25111752.145 -4252030.845 -587073.023 10 0 59296 74700.00000 0 -24855922.588 -4070748.136 -3791182.950 10 0 59296 75600.00000 0 -24197444.468 -3887533.740 -6921313.170 10 0 59296 76500.00000 0 -23149464.099 -3757204.385 -9916320.854 10 0 59296 77400.00000 0 -21738114.326 -3731199.903 -12717662.451 10 0 59296 78300.00000 0 -20001517.154 -3855155.275 -15270560.681 10 0 59296 79200.00000 0 -17988293.652 -4166724.574 -17525097.404 10 0 59296 80100.00000 0 -15755643.976 -4693751.893 -19437208.811 10 0 59296 81000.00000 0 -13367079.138 -5452869.294 -20969561.702 10 0 59296 81900.00000 0 -10889901.127 -6448583.156 -22092292.442 10 0 59296 82800.00000 0 -8392538.816 -7672888.874 -22783593.358 10 0 59296 83700.00000 0 -5941852.940 -9105430.812 -23030135.008 10 0 59296 84600.00000 0 -3600524.221 -10714200.734 -22827316.476 10 0 59296 85500.00000 0 -1424634.745 -12456744.557 -22179339.661 10 0 59297 0.00000 0 538456.356 -14281825.553 -21099107.447 10 0 59297 900.00000 0 2251854.902 -16131472.878 -19607949.048 10 0 59297 1800.00000 0 3690420.699 -17943327.641 -17735180.113 10 0 59297 2700.00000 0 4841551.147 -19653187.089 -15517507.249 10 0 59297 3600.00000 0 5705431.286 -21197639.300 -12998290.788 10 0 59297 4500.00000 0 6294742.120 -22516677.229 -10226681.525 10 0 59297 5400.00000 0 6633843.776 -23556182.878 -7256649.685 10 0 59297 6300.00000 0 6757471.163 -24270178.084 -4145926.019 10 0 59297 7200.00000 0 6709000.071 -24622748.890 -954876.500 10 0 59297 8100.00000 0 6538359.168 -24589564.537 2254667.211 10 0 59297 9000.00000 0 6299677.487 -24158929.409 5420598.905 10 0 59297 9900.00000 0 6048767.340 -23332325.868 8481727.867 10 0 59297 10800.00000 0 5840548.665 -22124427.094 11378945.779 10 0 59297 11700.00000 0 5726522.622 -20562580.802 14056349.263 10 0 59297 12600.00000 0 5752399.499 -18685786.234 16462297.963 10 0 59297 13500.00000 0 5955979.232 -16543207.227 18550389.733 10 0 59297 14400.00000 0 6365372.096 -14192282.598 20280336.135 10 0 59297 15300.00000 0 6997633.059 -11696511.107 21618723.291 10 0 59297 16200.00000 0 7857866.412 -9123000.977 22539645.197 10 0 59297 17100.00000 0 8938838.282 -6539883.158 23025198.660 10 0 59297 18000.00000 0 10221114.153 -4013692.973 23065831.066 10 0 59297 18900.00000 0 11673717.405 -1606826.029 22660534.498 10 0 59297 19800.00000 0 13255283.879 624828.559 21816881.879 10 0 59297 20700.00000 0 14915667.152 2633981.194 20550903.236 10 0 59297 21600.00000 0 16597930.726 4383675.406 18886802.652 10 0 59297 22500.00000 0 18240646.947 5848590.373 16856519.047 10 0 59297 23400.00000 0 19780409.173 7015857.748 14499136.762 10 0 59297 24300.00000 0 21154453.940 7885357.796 11860154.738 10 0 59297 25200.00000 0 22303284.297 8469481.113 8990626.018 10 0 59297 26100.00000 0 23173184.092 8792364.349 5946182.355 10 0 59297 27000.00000 0 23718516.556 8888630.700 2785961.467 10 0 59297 27900.00000 0 23903708.495 8801687.177 -428542.885 10 0 59297 28800.00000 0 23704833.863 8581650.082 -3634685.360 10 0 59297 29700.00000 0 23110726.985 8282986.699 -6769903.742 10 0 59297 30600.00000 0 22123575.445 7961974.139 -9772958.290 10 0 59297 31500.00000 0 20758964.865 7674084.779 -12585149.428 10 0 59297 32400.00000 0 19045371.542 7471411.520 -15151487.753 10 0 59297 33300.00000 0 17023122.853 7400244.715 -17421791.180 10 0 59297 34200.00000 0 14742868.652 7498906.257 -19351685.511 10 0 59297 35100.00000 0 12263628.140 7795935.127 -20903487.123 10 0 59297 36000.00000 0 9650495.139 8308703.379 -22046949.129 10 0 59297 36900.00000 0 6972099.380 9042522.564 -22759855.663 10 0 59297 37800.00000 0 4297931.697 9990279.153 -23028452.490 10 0 59297 38700.00000 0 1695646.387 11132614.404 -22847705.907 10 0 59297 39600.00000 0 -771545.396 12438640.444 -22221385.734 10 0 59297 40500.00000 0 -3047281.961 13867161.239 -21161972.051 10 0 59297 41400.00000 0 -5084157.089 15368345.585 -19690389.010 10 0 59297 42300.00000 0 -6845438.905 16885780.045 -17835572.654 10 0 59297 43200.00000 0 -8306331.992 18358813.946 -15633882.904 10 0 59297 44100.00000 0 -9454732.774 19725096.595 -13128372.877 10 0 59297 45000.00000 0 -10291449.878 20923199.181 -10367931.398 10 0 59297 45900.00000 0 -10829883.919 21895210.885 -7406316.760 10 0 59297 46800.00000 0 -11095183.799 22589200.400 -4301101.616 10 0 59297 47700.00000 0 -11122918.340 22961440.301 -1112550.361 10 0 59297 48600.00000 0 -10957321.979 22978302.165 2097548.821 10 0 59297 49500.00000 0 -10649190.525 22617744.582 5267074.629 10 0 59297 50400.00000 0 -10253516.865 21870333.421 8334763.337 10 0 59297 51300.00000 0 -9826966.641 20739753.336 11241377.375 10 0 59297 52200.00000 0 -9425299.841 19242790.513 13930830.578 10 0 59297 53100.00000 0 -9100845.732 17408788.324 16351249.872 10 0 59297 54000.00000 0 -8900135.906 15278598.861 18455954.937 10 0 59297 54900.00000 0 -8861793.165 12903073.541 20204338.918 10 0 59297 55800.00000 0 -9014763.318 10341154.381 21562635.165 10 0 59297 56700.00000 0 -9376962.833 7657643.303 22504557.006 10 0 59297 57600.00000 0 -9954398.405 4920739.517 23011799.603 10 0 59297 58500.00000 0 -10740795.491 2199444.349 23074395.033 10 0 59297 59400.00000 0 -11717752.339 -439061.849 22690913.976 10 0 59297 60300.00000 0 -12855414.939 -2931964.776 21868509.610 10 0 59297 61200.00000 0 -14113647.079 -5223179.894 20622801.681 10 0 59297 62100.00000 0 -15443649.499 -7265438.425 18977601.211 10 0 59297 63000.00000 0 -16789963.370 -9022009.851 16964478.829 10 0 59297 63900.00000 0 -18092776.950 -10467989.272 14622182.608 10 0 59297 64800.00000 0 -19290440.991 -11591095.363 11995914.006 10 0 59297 65700.00000 0 -20322088.751 -12391944.418 9136473.521 10 0 59297 66600.00000 0 -21130250.962 -12883787.414 6099290.663 10 0 59297 67500.00000 0 -21663355.142 -13091719.620 2943355.649 10 0 59297 68400.00000 0 -21878002.426 -13051394.656 -269927.122 10 0 59297 69300.00000 0 -21740923.464 -12807296.336 -3477941.334 10 0 59297 70200.00000 0 -21230527.967 -12410641.117 -6618092.495 10 0 59297 71100.00000 0 -20337979.229 -11917000.423 -9629047.638 10 0 59297 72000.00000 0 -19067745.228 -11383744.850 -12451954.669 10 0 59297 72900.00000 0 -17437600.312 -10867420.461 -15031615.325 10 0 59297 73800.00000 0 -15478075.331 -10421170.804 -17317586.479 10 0 59297 74700.00000 0 -13231378.149 -10092316.453 -19265186.016 10 0 59297 75600.00000 0 -10749829.516 -9920197.121 -20836381.785 10 0 59297 76500.00000 0 -8093880.277 -9934369.872 -22000544.931 10 0 59297 77400.00000 0 -5329794.132 -10153241.230 -22735051.993 10 0 59297 78300.00000 0 -2527094.238 -10583191.930 -23025723.857 10 0 59297 79200.00000 0 244118.156 -11218231.408 -22867093.309 10 0 59297 80100.00000 0 2915859.772 -12040196.039 -22262496.793 10 0 59297 81000.00000 0 5424862.754 -13019481.555 -21223989.844 10 0 59297 81900.00000 0 7714965.122 -14116277.151 -19772089.326 10 0 59297 82800.00000 0 9739195.059 -15282247.376 -17935349.232 10 0 59297 83700.00000 0 11461463.643 -16462589.076 -15749780.056 10 0 59297 84600.00000 0 12857797.664 -17598375.064 -13258124.765 10 0 59297 85500.00000 0 13917063.889 -18629084.488 -10509007.105 10 0 59298 0.00000 0 14641157.961 -19495212.596 -7555970.284 10 0 59298 900.00000 0 15044653.520 -20140849.582 -4456425.426 10 0 59298 1800.00000 0 15153930.061 -20516121.093 -1270532.098 10 0 59298 2700.00000 0 15005818.784 -20579387.264 1939968.235 10 0 59298 3600.00000 0 14645826.580 -20299110.757 5112942.284 10 0 59298 4500.00000 0 14126014.128 -19655315.735 8187056.180 10 0 59298 5400.00000 0 13502618.557 -18640578.692 11102945.686 10 0 59298 6300.00000 0 12833520.661 -17260510.880 13804344.067 10 0 59298 7200.00000 0 12175662.470 -15533713.169 16239147.378 10 0 59298 8100.00000 0 11582522.368 -13491205.686 18360398.543 10 0 59298 9000.00000 0 11101752.056 -11175355.636 20127173.299 10 0 59298 9900.00000 0 10773072.702 -8638347.002 21505352.803 10 0 59298 10800.00000 0 10626516.782 -5940253.875 22468269.890 10 0 59298 11700.00000 0 10681088.071 -3146794.967 22997217.864 10 0 59298 12600.00000 0 10943895.319 -326859.626 23081812.920 10 0 59298 13500.00000 0 11409796.063 2450095.186 22720203.445 10 0 59298 14400.00000 0 12061566.578 5116672.131 21919121.697 10 0 59298 15300.00000 0 12870592.619 7610078.627 20693775.728 10 0 59298 16200.00000 0 13798054.457 9874486.420 19067581.867 10 0 59298 17100.00000 0 14796559.276 11863109.002 17071740.658 10 0 59298 18000.00000 0 15812155.207 13539910.872 14744661.939 10 0 59298 18900.00000 0 16786644.854 14880877.211 12131247.573 10 0 59298 19800.00000 0 17660102.888 15874789.954 9282043.250 10 0 59298 20700.00000 0 18373492.686 16523476.234 6252273.841 10 0 59298 21600.00000 0 18871271.681 16841517.162 3100779.561 10 0 59298 22500.00000 0 19103874.473 16855427.508 -111127.141 10 0 59298 23400.00000 0 19029966.834 16602339.563 -3320861.569 10 0 59298 24300.00000 0 18618372.663 16128246.005 -6465799.500 10 0 59298 25200.00000 0 17849589.281 15485876.064 -9484517.152 10 0 59298 26100.00000 0 16716823.758 14732295.570 -12318012.129 10 0 59298 27000.00000 0 15226503.425 13926334.002 -14910879.273 10 0 59298 27900.00000 0 13398236.395 13125949.520 -17212416.123 10 0 59298 28800.00000 0 11264221.921 12385645.911 -19177634.078 10 0 59298 29700.00000 0 8868134.322 11754053.214 -20768153.677 10 0 59298 30600.00000 0 6263527.066 11271776.556 -21952965.091 10 0 59298 31500.00000 0 3511824.533 10969605.866 -22709038.076 10 0 59298 32400.00000 0 679986.527 10867163.133 -23021769.251 10 0 59298 33300.00000 0 -2162055.531 10972044.617 -22885258.279 10 0 59298 34200.00000 0 -4944082.222 11279493.677 -22302408.344 10 0 59298 35100.00000 0 -7598276.609 11772616.809 -21284850.229 10 0 59298 36000.00000 0 -10061808.832 12423132.018 -19852692.947 10 0 59298 36900.00000 0 -12279207.110 13192615.833 -18034107.506 10 0 59298 37800.00000 0 -14204417.259 14034194.148 -15864753.704 10 0 59298 38700.00000 0 -15802466.527 14894603.465 -13387062.770 10 0 59298 39600.00000 0 -17050664.641 15716533.811 -10649391.539 10 0 59298 40500.00000 0 -17939294.921 16441153.175 -7705065.968 10 0 59298 41400.00000 0 -18471769.931 17010706.300 -4611333.729 10 0 59298 42300.00000 0 -18664248.529 17371078.135 -1428247.146 10 0 59298 43200.00000 0 -18544733.720 17474214.395 1782501.422 10 0 59298 44100.00000 0 -18151692.004 17280298.281 4958769.174 10 0 59298 45000.00000 0 -17532254.387 16759593.095 8039154.646 10 0 59298 45900.00000 0 -16740076.037 15893874.771 10964169.541 10 0 59298 46800.00000 0 -15832945.015 14677395.624 13677369.200 10 0 59298 47700.00000 0 -14870240.189 13117340.013 16126421.428 10 0 59298 48600.00000 0 -13910343.973 11233753.495 18264094.963 10 0 59298 49500.00000 0 -13008116.768 9058948.295 20049150.568 10 0 59298 50400.00000 0 -12212537.059 6636409.122 21447119.469 10 0 59298 51300.00000 0 -11564604.019 4019243.238 22430956.009 10 0 59298 52200.00000 0 -11095588.667 1268236.849 22981553.345 10 0 59298 53100.00000 0 -10825705.555 -1550404.278 23088113.143 10 0 59298 54000.00000 0 -10763259.976 -4367539.474 22748362.447 10 0 59298 54900.00000 0 -10904306.627 -7113703.346 21968613.110 10 0 59298 55800.00000 0 -11232835.070 -9721736.143 20763661.527 10 0 59298 56700.00000 0 -11721475.978 -12129327.758 19156528.877 10 0 59298 57600.00000 0 -12332700.836 -14281371.511 17178044.657 10 0 59298 58500.00000 0 -13020467.235 -16132030.704 14866279.016 10 0 59298 59400.00000 0 -13732243.060 -17646431.996 12265832.302 10 0 59298 60300.00000 0 -14411326.402 -18801914.178 9426993.064 10 0 59298 61200.00000 0 -14999364.775 -19588778.689 6404778.839 10 0 59298 62100.00000 0 -15438967.810 -20010508.655 3257876.843 10 0 59298 63000.00000 0 -15676302.489 -20083445.407 47504.350 10 0 59298 63900.00000 0 -15663559.709 -19835934.318 -3163788.980 10 0 59298 64800.00000 0 -15361185.444 -19306974.839 -6313352.734 10 0 59298 65700.00000 0 -14739779.143 -18544431.112 -9339675.928 10 0 59298 66600.00000 0 -13781575.722 -17602878.988 -12183609.481 10 0 59298 67500.00000 0 -12481445.246 -16541181.501 -14789544.876 10 0 59298 68400.00000 0 -10847365.028 -15419896.940 -17106523.658 10 0 59298 69300.00000 0 -8900341.890 -14298631.268 -19089253.777 10 0 59298 70200.00000 0 -6673786.177 -13233449.086 -20699011.063 10 0 59298 71100.00000 0 -4212362.980 -12274454.734 -21904406.787 10 0 59298 72000.00000 0 -1570368.803 -11463647.516 -22682005.389 10 0 59298 72900.00000 0 1190297.688 -10833142.771 -23016780.052 10 0 59298 73800.00000 0 4002484.943 -10403834.256 -22902397.520 10 0 59298 74700.00000 0 6796358.246 -10184553.910 -22341327.338 10 0 59298 75600.00000 0 9502081.501 -10171763.216 -21344774.639 10 0 59298 76500.00000 0 12052498.348 -10349787.352 -19932439.216 10 0 59298 77400.00000 0 14385700.349 -10691579.953 -18132107.320 10 0 59298 78300.00000 0 16447375.581 -11159983.657 -15979085.873 10 0 59298 79200.00000 0 18192840.752 -11709430.694 -13515491.829 10 0 59298 80100.00000 0 19588673.787 -12288009.448 -10789412.207 10 0 59298 81000.00000 0 20613881.251 -12839807.858 -7853952.549 10 0 59298 81900.00000 0 21260554.741 -13307433.415 -4766193.452 10 0 59298 82800.00000 0 21533991.980 -13634602.725 -1586076.378 10 0 59298 83700.00000 0 21452280.800 -13768691.377 1624759.191 10 0 59298 84600.00000 0 21045366.401 -13663137.114 4804164.640 10 0 59298 85500.00000 0 20353643.456 -13279596.149 7890674.439 10 0 59299 0.00000 0 19426133.901 -12589763.219 10824679.392 10 0 59299 900.00000 0 18318327.780 -11576779.800 13549559.866 10 0 59299 1800.00000 0 17089777.687 -10236173.901 16012757.746 10 0 59299 2700.00000 0 15801547.174 -8576290.744 18166769.477 10 0 59299 3600.00000 0 14513618.111 -6618198.644 19970042.264 10 0 59299 4500.00000 0 13282364.054 -4395072.110 21387758.343 10 0 59299 5400.00000 0 12158192.910 -1951077.180 22392494.059 10 0 59299 6300.00000 0 11183455.433 660196.967 22964742.491 10 0 59299 7200.00000 0 10390705.204 3377697.509 23093290.451 10 0 59299 8100.00000 0 9801381.529 6135180.478 22775442.949 10 0 59299 9000.00000 0 9424969.836 8863705.326 22017090.403 10 0 59299 9900.00000 0 9258674.944 11494251.205 20832616.218 10 0 59299 10800.00000 0 9287621.939 13960349.303 19244644.828 10 0 59299 11700.00000 0 9485577.912 16200624.086 17283632.834 10 0 59299 12600.00000 0 9816166.376 18161139.069 14987308.643 10 0 59299 13500.00000 0 10234525.589 19797449.913 12399968.839 10 0 59299 14400.00000 0 10689342.998 21076278.723 9571642.400 10 0 59299 15300.00000 0 11125181.658 21976738.274 6557136.941 10 0 59299 16200.00000 0 11485001.217 22491053.110 3414983.962 10 0 59299 17100.00000 0 11712766.849 22624745.191 206302.756 10 0 59299 18000.00000 0 11756034.736 22396274.200 -3006394.875 10 0 59299 18900.00000 0 11568402.665 21836145.975 -6160435.095 10 0 59299 19800.00000 0 11111719.315 20985525.536 -9194222.351 10 0 59299 20700.00000 0 10357955.502 19894412.832 -12048463.295 10 0 59299 21600.00000 0 9290654.855 18619458.697 -14667348.211 10 0 59299 22500.00000 0 7905899.339 17221514.357 -16999664.527 10 0 59299 23400.00000 0 6212746.091 15763019.799 -18999818.341 10 0 59299 24300.00000 0 4233114.986 14305343.281 -20628742.102 10 0 59299 25200.00000 0 2001130.247 12906186.429 -21854669.264 10 0 59299 26100.00000 0 -438056.724 11617166.251 -22653759.791 10 0 59299 27000.00000 0 -3029913.748 10481677.360 -23010564.026 10 0 59299 27900.00000 0 -5712573.841 9533125.160 -22918316.105 10 0 59299 28800.00000 0 -8419193.918 8793604.224 -22379051.926 10 0 59299 29700.00000 0 -11080526.492 8273076.535 -21403550.591 10 0 59299 30600.00000 0 -13627595.923 7969082.357 -20011101.914 10 0 59299 31500.00000 0 -15994366.699 7866993.568 -18229106.233 10 0 59299 32400.00000 0 -18120292.333 7940795.948 -16092516.099 10 0 59299 33300.00000 0 -19952639.002 8154364.485 -13643132.401 10 0 59299 34200.00000 0 -21448488.099 8463175.125 -10928770.350 10 0 59299 35100.00000 0 -22576335.979 8816378.192 -8002312.935 10 0 59299 36000.00000 0 -23317226.506 9159144.024 -4920671.450 10 0 59299 36900.00000 0 -23665371.827 9435180.482 -1743674.201 10 0 59299 37800.00000 0 -23628238.411 9589315.450 1467094.518 10 0 59299 38700.00000 0 -23226097.675 9570035.418 4649482.658 10 0 59299 39600.00000 0 -22491062.542 9331873.766 7741963.039 10 0 59299 40500.00000 0 -21465652.367 8837549.210 10684808.144 10 0 59299 41400.00000 0 -20200947.562 8059765.704 13421225.611 10 0 59299 42300.00000 0 -18754411.695 6982599.477 15898433.960 10 0 59299 43200.00000 0 -17187471.804 5602416.008 18068659.730 10 0 59299 44100.00000 0 -15562956.938 3928279.019 19890038.794 10 0 59299 45000.00000 0 -13942500.243 1981834.299 21327406.413 10 0 59299 45900.00000 0 -12384010.881 -203327.790 22352962.703 10 0 59299 46800.00000 0 -10939318.978 -2582806.286 22946802.126 10 0 59299 47700.00000 0 -9652089.730 -5102975.341 23097297.780 10 0 59299 48600.00000 0 -8556091.887 -7702958.779 22801333.453 10 0 59299 49500.00000 0 -7673891.708 -10316914.887 22064378.590 10 0 59299 50400.00000 0 -7016026.492 -12876539.845 20900403.720 10 0 59299 51300.00000 0 -6580692.594 -15313688.983 19331636.280 10 0 59299 52200.00000 0 -6353961.985 -17563009.495 17388159.359 10 0 59299 53100.00000 0 -6310519.954 -19564476.786 15107358.630 10 0 59299 54000.00000 0 -6414894.851 -21265729.687 12533225.554 10 0 59299 54900.00000 0 -6623130.113 -22624106.994 9715527.835 10 0 59299 55800.00000 0 -6884829.781 -23608299.133 6708861.138 10 0 59299 56700.00000 0 -7145492.284 -24199544.068 3571598.928 10 0 59299 57600.00000 0 -7349034.151 -24392315.118 364759.932 10 0 59299 58500.00000 0 -7440396.300 -24194469.378 -2849184.736 10 0 59299 59400.00000 0 -7368121.030 -23626848.382 -6007540.860 10 0 59299 60300.00000 0 -7086788.199 -22722346.096 -9048631.555 10 0 59299 61200.00000 0 -6559204.485 -21524482.529 -11913022.587 10 0 59299 62100.00000 0 -5758249.739 -20085542.928 -14544706.487 10 0 59299 63000.00000 0 -4668298.951 -18464361.605 -16892219.982 10 0 59299 63900.00000 0 -3286156.757 -16723845.228 -18909670.577 10 0 59299 64800.00000 0 -1621462.469 -14928341.741 -20557650.324 10 0 59299 65700.00000 0 303453.261 -13140967.779 -21804017.447 10 0 59299 66600.00000 0 2454255.099 -11421009.108 -22624529.540 10 0 59299 67500.00000 0 4785804.424 -9821504.983 -23003315.674 10 0 59299 68400.00000 0 7243824.673 -8387118.980 -22933178.393 10 0 59299 69300.00000 0 9766959.866 -7152385.984 -22415720.419 10 0 59299 70200.00000 0 12289138.997 -6140408.265 -21461294.781 10 0 59299 71100.00000 0 14742146.256 -5362053.862 -20088780.780 10 0 59299 72000.00000 0 17058288.560 -4815688.689 -18325191.841 10 0 59299 72900.00000 0 19173048.420 -4487450.735 -16205124.668 10 0 59299 73800.00000 0 21027611.282 -4352051.588 -13770062.134 10 0 59299 74700.00000 0 22571162.349 -4374068.334 -11067545.204 10 0 59299 75600.00000 0 23762858.190 -4509668.299 -8150231.421 10 0 59299 76500.00000 0 24573392.647 -4708691.292 -5074859.469 10 0 59299 77400.00000 0 24986093.833 -4916999.555 -1901140.892 10 0 59299 78300.00000 0 24997509.055 -5078994.949 1309399.034 10 0 59299 79200.00000 0 24617455.856 -5140196.675 4494608.689 10 0 59299 80100.00000 0 23868539.584 -5049770.988 7592903.021 10 0 59299 81000.00000 0 22785159.809 -4762907.041 10544439.690 10 0 59299 81900.00000 0 21412048.642 -4242939.943 13292256.947 10 0 59299 82800.00000 0 19802402.861 -3463133.059 15783352.730 10 0 59299 83700.00000 0 18015687.815 -2408045.875 17969686.060 10 0 59299 84600.00000 0 16115203.920 -1074430.889 19809083.428 10 0 59299 85500.00000 0 14165515.755 528377.726 21266034.637 99